Regional Weather Roundup
Issued by NWS

Home | Current Version | Previous Version | Graphics & Text | Print | Product List | Glossary On
Versions: 1 2 3 4 5 6 7 8 9 10 11 12 13 14 15 16 17 18 19 20 21 22 23 24 25 26 27 28 29 30 31 32 33 34 35 36 37 38 39 40 41 42 43 44 45 46 47 48 49 50
000
ASUS43 KMPX 190201
RWRMN
WEATHER ROUNDUP FOR MINNESOTA
NATIONAL WEATHER SERVICE TWIN CITIES/CHANHASSEN MN
900 PM CDT MON SEP 18 2017


NOTE: "FAIR" INDICATES FEW OR NO CLOUDS BELOW 12,000 FEET WITH NO
SIGNIFICANT WEATHER AND/OR OBSTRUCTIONS TO VISIBILITY. N/A MEANS
CURRENT SKY AND/OR WEATHER CONDITIONS ARE NOT AVAILABLE.

MNZ060>063-068>070-190300-
   Twin Cities Metro

CITY           SKY/WX    TMP DP  RH WIND       PRES   REMARKS
TWIN CITIES    CLOUDY    59  57  93 SE10      29.96S
ST PAUL        CLOUDY    57  56  96 SE12      29.97S
CRYSTAL        CLOUDY    57  52  83 E5        29.95R
BLAINE         CLOUDY    57  57 100 E7        29.96S
LAKEVILLE      CLOUDY    55  55 100 E3        29.96R
EDEN PRAIRIE   CLOUDY    58  56  93 SE7       29.94S
SOUTH ST PAUL  CLOUDY    57  56  97 SE3       29.96S
LAKE ELMO      CLOUDY    55  54  94 E6        29.98S
$$
MNZ001>005-007-008-013>017-022>024-027-028-190300-
   Northwest Minnesota

CITY           SKY/WX    TMP DP  RH WIND       PRES   REMARKS
BEMIDJI        CLOUDY    55  53  94 SE9       29.92S
HALLOCK        PTCLDY    57  55  94 E8        29.84R
ROSEAU         PTCLDY    57  54  88 E6        29.88S
WARROAD        CLOUDY    57  54  88 E6        29.90R
CROOKSTON      MOCLDY    59  55  88 SE10      29.86S
FOSSTON        CLOUDY    55  54  94 SE9       29.90S
DETROIT LAKES  CLOUDY    59  55  88 SE12      29.90S
MOORHEAD       CLOUDY    63  55  77 SE12G17   29.85S
PARK RAPIDS    CLOUDY    58  54  86 SE12      29.92S
MAHNOMEN       CLOUDY    57  55  91 SE8       29.88S
$$
MNZ006-009>011-018-025>026-190300-
   North Central Minnesota

CITY           SKY/WX    TMP DP  RH WIND       PRES   REMARKS
BAUDETTE       CLEAR     55  51  86 SE7       29.91R
FLAG ISLAND    MOCLDY    61  52  72 E3        29.89R
INTL FALLS     CLOUDY    55  49  80 SE3       29.94S
WASKISH        CLOUDY    57  54  88 S6        29.93R
BIG FORK       CLOUDY    55  52  88 SE3       29.95S
LONGVILLE      CLOUDY    55  54  94 SE10      29.95R
GRAND RAPIDS   CLOUDY    55  50  83 S13       29.98S
CRANE LAKE     CLOUDY    55  50  82 CALM      29.99R
ORR            CLOUDY    55  48  76 SE6       29.96R
COOK           CLOUDY    55  52  88 CALM      29.98S
WALKER         CLOUDY    55  53  91 SE8       29.93S
$$
MNZ012-019>021-037-190300-
   Northeast Minnesota

CITY           SKY/WX    TMP DP  RH WIND       PRES   REMARKS
DULUTH         CLOUDY    54  48  80 S8        30.00S
ELY            CLOUDY    55  48  76 SE6       30.01R
HIBBING        CLOUDY    53  49  86 SE8       29.98S
EVELETH        CLOUDY    55  50  83 S9        30.00S
DULUTH HARBOR  CLOUDY    57  52  82 S3        30.01S
SILVER BAY     CLOUDY    57  52  82 S6        30.01S
GRAND MARAIS     N/A     56  53  90 N3        30.04R
$$
MNZ029>031-032-039>041-046>048-054>057-064-190300-
   West Central Minnesota

CITY           SKY/WX    TMP DP  RH WIND       PRES   REMARKS
FERGUS FALLS   CLOUDY    61  57  88 SE13      29.87S
WHEATON        CLEAR     59  55  88 SE10      29.87S
MORRIS         MOCLDY    61  57  88 SE12      29.88S
ALEXANDRIA     CLOUDY    57  56  96 SE9       29.93S FOG
ELBOW LAKE     CLOUDY    59  57  94 E12G17    29.89S
WADENA         CLOUDY    55  55 100 SE9       29.92S FOG
GLENWOOD       CLOUDY    57  55  94 SE9       29.93S FOG
APPLETON       PTCLDY    61  57  88 SE10      29.88S
BENSON         CLOUDY    61  57  88 SE8       29.91S
ORTONVILLE     CLEAR     61  55  82 NE9       29.87R
MADISON        CLEAR     63  63 100 E8        29.88R
WILLMAR        CLOUDY    61  61 100 SE7       29.94R FOG
$$
MNZ033>034-036-042>043-049>051-058-059-190300-
   Central Minnesota

CITY           SKY/WX    TMP DP  RH WIND       PRES   REMARKS
ST CLOUD       CLOUDY    54  54 100 SE7       29.96R
PAYNESVILLE    CLOUDY    56  56 100 E8        29.95R FOG
AITKIN         CLOUDY    54  50  87 SE9       29.97R
PINE RIVER     CLOUDY    54  48  82 SE8       29.98S
BRAINERD       CLOUDY    53  52  96 SE6       29.97R FOG
STAPLES        CLOUDY    54  54 100 SE5       29.95R
LONG PRAIRIE   CLOUDY    54  54 100 E6        29.95R FOG
LITTLE FALLS   CLOUDY    54  50  87 SE5       29.96R FOG
LITCHFIELD     CLOUDY    57  57 100 SE8       29.95R FOG
BUFFALO        CLOUDY    55  53  92 E5        29.96S FOG
MAPLE LAKE     CLOUDY    56  56  97 E5        29.96R FOG
HUTCHINSON     CLOUDY    59  58  98 E6        29.95R
$$
MNZ037-044-045-052-053-190300-
   East Central Minnesota

CITY           SKY/WX    TMP DP  RH WIND       PRES   REMARKS
PRINCETON      CLOUDY    55  52  88 E5        29.97R FOG
MORA           CLOUDY    54  48  82 SE6       29.99S
RUSH CITY      CLOUDY    55  50  85 CALM      29.98S
MOOSE LAKE     CLOUDY    54  46  76 CALM      29.98S
HINCKLEY       CLOUDY    54  50  87 E5        29.99R
CLOQUET        CLOUDY    54  46  76 CALM      30.00S
MCGREGOR       CLOUDY    54  50  87 SE7       29.99R
$$
MNZ071>073-080-081-089-090-097-098-190300-
   Southwest Minnesota

CITY           SKY/WX    TMP DP  RH WIND       PRES   REMARKS
MONTEVIDEO     CLOUDY    63  61  94 SE9       29.90R
GRANITE FALLS  CLOUDY    64  61  90 E8        29.91S
CANBY          PTCLDY    60  59  94 E3        29.89R
MARSHALL       CLOUDY    63  61  93 SE13      29.89R
REDWOOD FALLS  CLOUDY    62  59  90 SE8       29.91R
OLIVIA         CLOUDY    59  55  88 SE8       29.91S
PIPESTONE      PTCLDY    63  61  94 SE5       29.90R
WORTHINGTON    FOG       63  63 100 SE7       29.91S VSB 1/4
JACKSON        FOG       63  63 100 CALM      29.93R VSB 1/4
TRACY          CLOUDY    63  63  99 SE8       29.90R FOG
SLAYTON        FOG       62  61  95 SE6       29.91R VSB 1
$$
MNZ065>067-074>077-082>085-091>093-190300-
   South Central Minnesota

CITY           SKY/WX    TMP DP  RH WIND       PRES   REMARKS
MANKATO        CLOUDY    61  59  93 SE9       29.94R
NEW ULM        CLOUDY    61  57  88 SE6       29.92S
ST JAMES       CLOUDY    61  61 100 SE6       29.94R FOG
FAIRMONT       CLOUDY    63  62  97 SE9       29.93R
GLENCOE        CLOUDY    59  59 100 E6        29.94R
FARIBAULT      MOCLDY    57  57 100 SE6       29.96R
OWATONNA       LGT RAIN  59  57  94 SE8       29.95S
WASECA         CLOUDY    59  59 100 SE8       29.96R
ALBERT LEA     CLOUDY    63  63 100 SE3       29.96S
$$
MNZ078>079-086>088-094>096-190300-
   Southeast Minnesota

CITY           SKY/WX    TMP DP  RH WIND       PRES   REMARKS
ROCHESTER      CLOUDY    57  56  96 SE7       29.98S
RED WING       CLOUDY    57  54  88 SE7       29.96F
STANTON        CLEAR     58  55  91 SE3       29.95S
DODGE CENTER   MOCLDY    57  55  94 SE8       29.97S
WINONA         MOCLDY    55  54  94 SE3       29.99S
AUSTIN         CLOUDY    61  57  88 SE6       29.96F
PRESTON        LGT RAIN  57  55  92 N6        30.00R
$$
ABBREVIATIONS USED IN REMARKS
   TC - TEMPERATURES IN CELSIUS
  WCI - WIND CHILL INDEX
   HX - HEAT INDEX
  VSB - VISIBILITY
$$




USA.gov is the U.S. government's official web portal to all federal, state and local government web resources and services.